Home > Weather > Dundee > Past weeks

Flag for United Kingdom Past Weather in Dundee, Scotland, United Kingdom — Yesterday and Last 2 Weeks

Now
50 °F

Partly sunny.


Feels Like: 50 °F
Forecast: 47 / 65 °F
Wind: 2 mph from West

Location: Dundee / Riverside

Current Time: May 30, 2016 at 7:56:11 AM

Latest Report: May 30, 2016 at 7:20 AM


Visibility: 4 mi

Pressure: 30.18 "Hg

Humidity: 82%

Dew Point: 45 °F

Location of DundeeLocation

Past Weather in Dundee — Graph

°F

Dundee Temperature Yesterday

Maximum temperature yesterday: 59 °F (at 1:20 PM)
Minimum temperature yesterday: 50 °F (at 9:20 AM)
Average temperature yesterday: 55 °F

High & Low Weather Summary for the Past Weeks

 TemperatureHumidityPressure
High63 °F (May 16, 4:50 PM)100% (May 18, 6:50 PM)30.30 "Hg (May 18, 6:50 PM)
Low45 °F (May 25, 6:20 AM)48% (May 15, 3:50 PM)29.42 "Hg (May 21, 11:50 AM)
Average55 °F77%29.95 "Hg
* Reported May 15 8:50 AM — May 30 6:20 AM, Dundee, Weather by CustomWeather, © 2016

Note: Actual official high and low records may vary slightly from our data, if they occured in-between our weather recording intervals... More about our weather records

Advertising

Dundee Weather History for the Previous 24 Hours

Scroll right to see more
 ConditionsComfort  
Time TempWeatherWind HumidityBarometerVisibility
6:20 AM
Mon, May 30
50 °FPartly sunny.1 mph94%30.18 "Hg3 mi
8:20 PM
Sun, May 29
50 °FPartly sunny.10 mph94%30.09 "HgN/A
7:50 PM50 °FScattered clouds.12 mph100%30.09 "HgN/A
7:20 PM50 °FScattered clouds.13 mph94%30.07 "HgN/A
6:50 PM52 °FFog.13 mph88%30.07 "HgN/A
6:20 PM54 °FPassing clouds.10 mph82%30.07 "HgN/A
5:50 PM54 °FPassing clouds.10 mph82%30.07 "HgN/A
5:20 PM55 °FPassing clouds.10 mph77%30.07 "HgN/A
4:50 PM55 °FPassing clouds.10 mph77%30.07 "HgN/A
4:20 PM57 °FPassing clouds.10 mph77%30.07 "HgN/A
3:50 PM59 °FPassing clouds.12 mph72%30.07 "HgN/A
3:20 PM59 °FPassing clouds.10 mph72%30.07 "HgN/A
2:50 PM59 °FPassing clouds.10 mph77%30.04 "HgN/A
2:20 PM59 °FPassing clouds.10 mph72%30.04 "HgN/A
1:50 PM59 °FPassing clouds.10 mph72%30.04 "HgN/A
1:20 PM59 °FPassing clouds.9 mph72%30.04 "HgN/A
12:50 PM57 °FPassing clouds.6 mph77%30.04 "HgN/A
12:20 PM57 °FPassing clouds.1 mph77%30.04 "HgN/A
11:50 AM55 °FPassing clouds.1 mph77%30.04 "HgN/A
11:20 AM55 °FPassing clouds.1 mph77%30.04 "HgN/A
10:50 AM54 °FScattered clouds.2 mph82%30.04 "HgN/A
10:20 AM52 °FPartly sunny.2 mph82%30.04 "HgN/A
9:50 AM50 °FPartly sunny.3 mph88%30.04 "HgN/A
9:20 AM50 °FPartly sunny.5 mph88%30.04 "HgN/A
Weather by CustomWeather, © 2016

See weather overviewHow to use our weather pages